PHSTZ EHLE-EDLW

Flight info

Callsign PHSTZ
Flight time 1h 11m
Altitude 3000
Route EHLE BRAVO DCT SIERRA DCT EHTE STAY01/0010 DCT ZUTPHEN DCT WINTERSWIJK DCT EDLW W
Aircraft DA42/L-SBDGRY/S

Departure

Time 2026-04-30 18:11
Airport Lelystad Airport (EHLE)

Arrival

Time 2026-04-30 19:22
Airport Dortmund Airport (EDLW)
Time Latitude Longitude Altitude Speed Heading
2026-04-30 17:48 52.45517 5.52358 -9 ft 0 kts 227°
2026-04-30 18:04 52.45519 5.52293 -9 ft 5 kts 317°
2026-04-30 18:05 52.45356 5.51918 -9 ft 10 kts 242°
2026-04-30 18:06 52.45044 5.51337 -9 ft 14 kts 223°
2026-04-30 18:07 52.44699 5.50734 -9 ft 21 kts 226°
2026-04-30 18:08 52.44607 5.50392 -9 ft 0 kts 315°
2026-04-30 18:09 52.44654 5.50325 -10 ft 16 kts 329°
2026-04-30 18:10 52.46069 5.52577 557 ft 94 kts 45°
2026-04-30 18:11 52.46450 5.55556 1166 ft 95 kts 136°
2026-04-30 18:11 52.44535 5.53706 1113 ft 122 kts 220°
2026-04-30 18:12 52.42840 5.54331 954 ft 85 kts 125°
2026-04-30 18:13 52.41963 5.55802 982 ft 98 kts 126°
2026-04-30 18:13 52.40693 5.58141 1038 ft 109 kts 124°
2026-04-30 18:14 52.39643 5.60603 998 ft 112 kts 111°
2026-04-30 18:15 52.39068 5.64366 952 ft 116 kts 102°
2026-04-30 18:15 52.38684 5.68288 1060 ft 119 kts 95°
2026-04-30 18:16 52.38633 5.71028 995 ft 123 kts 96°
2026-04-30 18:16 52.38164 5.73611 918 ft 121 kts 118°
2026-04-30 18:17 52.37746 5.74796 950 ft 120 kts 115°
2026-04-30 18:17 52.37405 5.75999 1178 ft 110 kts 112°
2026-04-30 18:17 52.36745 5.78066 2016 ft 82 kts 120°
2026-04-30 18:18 52.36382 5.78974 2008 ft 108 kts 122°
2026-04-30 18:18 52.35919 5.80064 2052 ft 121 kts 122°
2026-04-30 18:18 52.35450 5.81258 2057 ft 125 kts 118°
2026-04-30 18:18 52.35015 5.82479 2097 ft 126 kts 126°
2026-04-30 18:19 52.34425 5.83559 2139 ft 127 kts 131°
2026-04-30 18:19 52.33834 5.84565 2247 ft 124 kts 133°
2026-04-30 18:19 52.33237 5.85600 2248 ft 127 kts 125°
2026-04-30 18:19 52.32857 5.86894 2271 ft 127 kts 108°
2026-04-30 18:20 52.32721 5.88302 2252 ft 128 kts 123°
2026-04-30 18:20 52.32129 5.89377 2358 ft 124 kts 132°
2026-04-30 18:20 52.31378 5.90144 2335 ft 133 kts 148°
2026-04-30 18:20 52.30513 5.90738 2300 ft 137 kts 150°
2026-04-30 18:21 52.29614 5.91206 2334 ft 133 kts 156°
2026-04-30 18:21 52.28726 5.91574 2371 ft 131 kts 157°
2026-04-30 18:21 52.27818 5.91831 2275 ft 145 kts 178°
2026-04-30 18:21 52.26847 5.91111 2276 ft 153 kts 199°
2026-04-30 18:22 52.26020 5.90028 2273 ft 162 kts 219°
2026-04-30 18:22 52.24293 5.89409 1847 ft 134 kts 126°
2026-04-30 18:22 52.23731 5.90538 1854 ft 123 kts 123°
2026-04-30 18:23 52.23284 5.91691 1800 ft 120 kts 120°
2026-04-30 18:23 52.22842 5.92806 1811 ft 116 kts 119°
2026-04-30 18:23 52.22431 5.93916 1767 ft 119 kts 116°
2026-04-30 18:23 52.22068 5.95098 1861 ft 119 kts 114°
2026-04-30 18:24 52.21352 5.97649 2068 ft 128 kts 113°
2026-04-30 18:24 52.20959 5.98936 2003 ft 119 kts 122°
2026-04-30 18:24 52.20539 6.00011 1629 ft 107 kts 121°
2026-04-30 18:25 52.20139 6.01023 1356 ft 109 kts 120°
2026-04-30 18:25 52.19624 6.03464 809 ft 122 kts 90°
2026-04-30 18:25 52.20062 6.04614 636 ft 133 kts 32°
2026-04-30 18:26 52.21965 6.04536 572 ft 133 kts 359°
2026-04-30 18:26 52.22636 6.03610 664 ft 140 kts 289°
2026-04-30 18:26 52.22892 6.02076 685 ft 136 kts 307°
2026-04-30 18:27 52.24329 6.01790 724 ft 100 kts 68°
2026-04-30 18:27 52.24315 6.02809 432 ft 87 kts 110°
2026-04-30 18:28 52.24260 6.04409 11 ft 55 kts 88°
2026-04-30 18:28 52.24282 6.04981 10 ft 65 kts 86°
2026-04-30 18:28 52.24091 6.06574 394 ft 87 kts 143°
2026-04-30 18:29 52.23472 6.06151 491 ft 128 kts 236°
2026-04-30 18:29 52.24173 6.02368 538 ft 102 kts 38°
2026-04-30 18:30 52.24230 6.03818 63 ft 69 kts 85°
2026-04-30 18:30 52.24251 6.04889 10 ft 8 kts 169°
2026-04-30 18:31 52.24219 6.04902 11 ft 3 kts 175°
2026-04-30 18:31 52.24124 6.04892 12 ft 0 kts 184°
2026-04-30 18:32 52.24131 6.04937 12 ft 6 kts 297°
2026-04-30 18:33 52.24159 6.04890 11 ft 10 kts
2026-04-30 18:33 52.24279 6.04928 10 ft 0 kts 85°
2026-04-30 18:33 52.24288 6.05139 12 ft 48 kts 86°
2026-04-30 18:34 52.24325 6.05911 64 ft 81 kts 84°
2026-04-30 18:34 52.24292 6.07802 534 ft 92 kts 135°
2026-04-30 18:34 52.23544 6.07825 538 ft 126 kts 185°
2026-04-30 18:35 52.22636 6.07666 497 ft 134 kts 171°
2026-04-30 18:35 52.21952 6.06977 797 ft 132 kts 271°
2026-04-30 18:35 52.22263 6.05448 658 ft 153 kts 292°
2026-04-30 18:36 52.22459 6.01994 551 ft 148 kts 315°
2026-04-30 18:36 52.23345 6.01520 425 ft 135 kts
2026-04-30 18:36 52.24230 6.02554 368 ft 77 kts 107°
2026-04-30 18:37 52.24215 6.03390 222 ft 70 kts 87°
2026-04-30 18:37 52.24248 6.04160 34 ft 65 kts 86°
2026-04-30 18:37 52.24274 6.04803 8 ft 62 kts 86°
2026-04-30 18:37 52.24303 6.05584 178 ft 75 kts 105°
2026-04-30 18:38 52.24294 6.06523 332 ft 92 kts 88°
2026-04-30 18:38 52.24598 6.07541 432 ft 124 kts 44°
2026-04-30 18:38 52.25379 6.08274 569 ft 132 kts 37°
2026-04-30 18:38 52.26139 6.09079 704 ft 129 kts 51°
2026-04-30 18:39 52.26538 6.10285 1051 ft 115 kts 81°
2026-04-30 18:39 52.26662 6.11414 1593 ft 90 kts 85°
2026-04-30 18:39 52.26676 6.12276 2156 ft 63 kts 102°
2026-04-30 18:39 52.26502 6.12992 2403 ft 73 kts 121°
2026-04-30 18:40 52.26134 6.13663 2675 ft 78 kts 129°
2026-04-30 18:40 52.25819 6.14345 2988 ft 80 kts 126°
2026-04-30 18:40 52.25510 6.15249 3020 ft 105 kts 115°
2026-04-30 18:40 52.24987 6.16169 3020 ft 122 kts 141°
2026-04-30 18:41 52.24256 6.16978 3020 ft 129 kts 142°
2026-04-30 18:41 52.23379 6.17447 3015 ft 136 kts 160°
2026-04-30 18:41 52.22455 6.17792 3018 ft 136 kts 160°
2026-04-30 18:41 52.21538 6.18130 3023 ft 131 kts 160°
2026-04-30 18:42 52.20632 6.18461 3008 ft 134 kts 160°
2026-04-30 18:42 52.18819 6.19387 3013 ft 142 kts 153°
2026-04-30 18:42 52.17885 6.19995 3012 ft 147 kts 153°
2026-04-30 18:45 52.11048 6.29495 3008 ft 118 kts 119°
2026-04-30 18:45 52.10666 6.30658 3010 ft 115 kts 119°
2026-04-30 18:45 52.10289 6.31797 3006 ft 114 kts 119°
2026-04-30 18:46 52.09916 6.32920 3010 ft 113 kts 118°
2026-04-30 18:46 52.09533 6.34071 3012 ft 118 kts 118°
2026-04-30 18:46 52.09136 6.35264 3014 ft 121 kts 118°
2026-04-30 18:46 52.08730 6.36475 3016 ft 123 kts 119°
2026-04-30 18:47 52.08319 6.37695 3017 ft 123 kts 119°
2026-04-30 18:47 52.07913 6.38906 3014 ft 124 kts 119°
2026-04-30 18:47 52.07507 6.40145 3017 ft 124 kts 119°
2026-04-30 18:47 52.07103 6.41389 3016 ft 124 kts 119°
2026-04-30 18:48 52.06699 6.42632 3018 ft 124 kts 119°
2026-04-30 18:48 52.06297 6.43870 3017 ft 124 kts 119°
2026-04-30 18:48 52.05895 6.45108 3016 ft 124 kts 119°
2026-04-30 18:48 52.05493 6.46345 3017 ft 124 kts 119°
2026-04-30 18:49 52.05091 6.47588 3015 ft 124 kts 119°
2026-04-30 18:49 52.04689 6.48834 3019 ft 125 kts 119°
2026-04-30 18:49 52.04290 6.50066 3019 ft 125 kts 119°
2026-04-30 18:49 52.03882 6.51319 3021 ft 126 kts 119°
2026-04-30 18:50 52.03472 6.52579 3020 ft 127 kts 119°
2026-04-30 18:50 52.03058 6.53840 3021 ft 127 kts 119°
2026-04-30 18:50 52.02640 6.55108 3021 ft 127 kts 119°
2026-04-30 18:50 52.02220 6.56372 3020 ft 127 kts 119°
2026-04-30 18:51 52.01799 6.57641 3020 ft 128 kts 119°
2026-04-30 18:51 52.01377 6.58915 3020 ft 128 kts 119°
2026-04-30 18:51 52.00956 6.60189 3018 ft 128 kts 119°
2026-04-30 18:51 52.00543 6.61432 3019 ft 126 kts 119°
2026-04-30 18:52 52.00127 6.62677 3021 ft 125 kts 119°
2026-04-30 18:52 51.99711 6.63908 3019 ft 124 kts 119°
2026-04-30 18:52 51.99295 6.65132 3020 ft 123 kts 119°
2026-04-30 18:52 51.98881 6.66346 3018 ft 123 kts 119°
2026-04-30 18:53 51.98469 6.67555 3016 ft 122 kts 119°
2026-04-30 18:53 51.98060 6.68759 3017 ft 122 kts 119°
2026-04-30 18:53 51.97790 6.69558 3018 ft 122 kts 119°
2026-04-30 18:53 51.97256 6.71168 3018 ft 123 kts 119°
2026-04-30 18:54 51.96783 6.72334 3021 ft 125 kts 128°
2026-04-30 18:54 51.96223 6.73416 3024 ft 126 kts 129°
2026-04-30 18:54 51.95655 6.74503 3021 ft 126 kts 129°
2026-04-30 18:54 51.95087 6.75593 3025 ft 127 kts 129°
2026-04-30 18:55 51.94519 6.76690 3025 ft 127 kts 129°
2026-04-30 18:55 51.93577 6.78528 3023 ft 128 kts 130°
2026-04-30 18:55 51.92999 6.79626 3019 ft 128 kts 130°
2026-04-30 18:56 51.91645 6.82181 3022 ft 128 kts 131°
2026-04-30 18:56 51.91076 6.83281 3021 ft 127 kts 129°
2026-04-30 18:56 51.90697 6.84034 3023 ft 127 kts 129°
2026-04-30 18:57 51.89603 6.86215 3019 ft 123 kts 128°
2026-04-30 18:57 51.89055 6.87254 3022 ft 121 kts 129°
2026-04-30 18:57 51.88508 6.88287 3017 ft 121 kts 129°
2026-04-30 18:58 51.87403 6.90395 3026 ft 127 kts 128°
2026-04-30 18:58 51.86828 6.91517 3029 ft 131 kts 128°
2026-04-30 18:58 51.86241 6.92663 3031 ft 133 kts 128°
2026-04-30 18:59 51.85102 6.94982 3027 ft 129 kts 128°
2026-04-30 19:00 51.83420 6.98249 3027 ft 125 kts 128°
2026-04-30 19:00 51.82863 6.99333 3026 ft 126 kts 128°
2026-04-30 19:00 51.81724 7.01559 3027 ft 130 kts 128°
2026-04-30 19:01 51.80558 7.03829 3026 ft 132 kts 127°
2026-04-30 19:01 51.79979 7.04979 3029 ft 132 kts 127°
2026-04-30 19:02 51.78867 7.07323 3024 ft 133 kts 129°
2026-04-30 19:02 51.77626 7.09551 3023 ft 133 kts 129°
2026-04-30 19:03 51.76460 7.11867 3027 ft 133 kts 125°
2026-04-30 19:03 51.75343 7.14264 3031 ft 133 kts 125°
2026-04-30 19:04 51.74237 7.16641 3028 ft 131 kts 125°
2026-04-30 19:04 51.73153 7.18977 3027 ft 130 kts 125°
2026-04-30 19:05 51.72065 7.21301 3027 ft 129 kts 125°
2026-04-30 19:05 51.71198 7.23611 3007 ft 99 kts 118°
2026-04-30 19:06 51.70204 7.25345 2643 ft 122 kts 129°
2026-04-30 19:06 51.69664 7.26481 2630 ft 129 kts 126°
2026-04-30 19:06 51.68213 7.26866 2460 ft 155 kts 232°
2026-04-30 19:07 51.68905 7.26200 2665 ft 121 kts 120°
2026-04-30 19:07 51.68194 7.27104 2573 ft 136 kts 140°
2026-04-30 19:08 51.66872 7.29186 2315 ft 128 kts 125°
2026-04-30 19:08 51.65968 7.31585 2080 ft 124 kts 112°
2026-04-30 19:08 51.65661 7.32871 1959 ft 126 kts 111°
2026-04-30 19:09 51.64943 7.35447 1726 ft 121 kts 114°
2026-04-30 19:09 51.64599 7.36665 1655 ft 120 kts 112°
2026-04-30 19:09 51.64241 7.37886 1583 ft 119 kts 115°
2026-04-30 19:10 51.63519 7.40145 1424 ft 113 kts 116°
2026-04-30 19:10 51.62753 7.42355 1141 ft 114 kts 121°
2026-04-30 19:11 51.62317 7.43389 1162 ft 108 kts 121°
2026-04-30 19:11 51.61559 7.45349 1467 ft 109 kts 118°
2026-04-30 19:11 51.61202 7.46453 1545 ft 113 kts 112°
2026-04-30 19:12 51.60933 7.47615 1671 ft 111 kts 109°
2026-04-30 19:12 51.60713 7.48815 1764 ft 112 kts 104°
2026-04-30 19:12 51.60526 7.50027 1811 ft 114 kts 108°
2026-04-30 19:13 51.59691 7.52224 1868 ft 116 kts 140°
2026-04-30 19:13 51.58309 7.53526 1755 ft 117 kts 143°
2026-04-30 19:13 51.57637 7.54259 1644 ft 115 kts 140°
2026-04-30 19:14 51.56997 7.55012 1528 ft 116 kts 138°
2026-04-30 19:14 51.56371 7.55783 1463 ft 112 kts 139°
2026-04-30 19:14 51.55726 7.56563 1257 ft 120 kts 137°
2026-04-30 19:14 51.55052 7.57406 1093 ft 123 kts 139°
2026-04-30 19:15 51.54379 7.58238 980 ft 123 kts 135°
2026-04-30 19:15 51.52951 7.59663 892 ft 116 kts 162°
2026-04-30 19:15 51.52236 7.59260 963 ft 123 kts 229°
2026-04-30 19:16 51.51810 7.57976 817 ft 134 kts 242°
2026-04-30 19:16 51.51351 7.56704 861 ft 128 kts 228°
2026-04-30 19:16 51.50519 7.57204 900 ft 82 kts 78°
2026-04-30 19:17 51.50785 7.58017 813 ft 82 kts 63°
2026-04-30 19:17 51.51278 7.59618 626 ft 78 kts 67°
2026-04-30 19:17 51.51539 7.60378 485 ft 77 kts 64°
2026-04-30 19:18 51.52015 7.61694 617 ft 95 kts 64°
2026-04-30 19:18 51.52641 7.62737 977 ft 107 kts 14°
2026-04-30 19:18 51.53206 7.62037 981 ft 116 kts 284°
2026-04-30 19:19 51.53021 7.60827 948 ft 112 kts 240°
2026-04-30 19:19 51.52669 7.59720 922 ft 114 kts 238°
2026-04-30 19:19 51.51914 7.57446 802 ft 116 kts 239°
2026-04-30 19:20 51.51562 7.56325 896 ft 108 kts 239°
2026-04-30 19:20 51.51258 7.55270 974 ft 99 kts 226°
2026-04-30 19:20 51.50308 7.55802 1071 ft 83 kts 107°
2026-04-30 19:21 51.50357 7.56732 1050 ft 86 kts 70°
2026-04-30 19:21 51.50881 7.58422 854 ft 78 kts 69°
2026-04-30 19:22 51.51433 7.60063 558 ft 87 kts 65°
2026-04-30 19:22 51.52005 7.61714 412 ft 43 kts 60°
2026-04-30 19:23 51.52051 7.62378 406 ft 0 kts 234°
2026-04-30 19:25 51.51981 7.62190 410 ft 16 kts 236°
2026-04-30 19:26 51.51829 7.61754 414 ft 26 kts 240°
2026-04-30 19:26 51.51683 7.61344 418 ft 18 kts 239°
2026-04-30 19:26 51.51601 7.61115 423 ft 25 kts 238°
2026-04-30 19:27 51.51440 7.60858 432 ft 15 kts 245°
2026-04-30 19:27 51.51316 7.60513 431 ft 25 kts 241°
2026-04-30 19:28 51.51223 7.60243 447 ft 27 kts 247°
2026-04-30 19:28 51.51192 7.60300 454 ft 19 kts 59°
2026-04-30 19:29 51.51251 7.60493 454 ft 6 kts 143°
2026-04-30 19:29 51.51239 7.60517 458 ft 0 kts 94°